Location: Grasslands National Park East Block
(49.0708°N, 106.5295°W)
Time: 02:29:15
(UTC-06:00)

ISS - Visible Passes

Search period start: 17 July 2019 00:00
Search period end: 27 July 2019 00:00
Orbit: 409 x 418 km, 51.6° (Epoch: 17 July)

Date Brightness Start Highest point End Pass type
(mag) Time Alt. Az. Time Alt. Az. Time Alt. Az.
17 Jul -3.5 00:26:48 10° W 00:30:07 66° NNW 00:33:27 10° ENE visible
17 Jul -3.1 02:03:46 10° WNW 02:07:03 55° N 02:10:20 10° E visible
17 Jul -3.8 03:40:31 10° WNW 03:43:48 60° SSW 03:47:04 10° SE visible
17 Jul -2.7 22:01:36 10° SSW 22:04:23 25° SE 22:07:11 10° E visible
17 Jul -3.8 23:37:28 10° WSW 23:40:48 83° NNW 23:44:09 10° ENE visible
18 Jul -3.0 01:14:26 10° WNW 01:17:42 52° N 01:20:58 10° E visible
18 Jul -3.9 02:51:13 10° WNW 02:54:33 84° SSW 02:57:52 10° ESE visible
18 Jul -2.4 04:28:24 10° W 04:30:53 20° SW 04:33:20 10° S visible
18 Jul -3.9 22:48:12 10° WSW 22:51:31 73° SSE 22:54:52 10° ENE visible
19 Jul -3.0 00:25:04 10° W 00:28:20 53° N 00:31:36 10° ENE visible
19 Jul -3.7 02:01:55 10° WNW 02:05:15 75° NNE 02:08:33 10° ESE visible
19 Jul -3.0 03:38:48 10° W 03:41:45 29° SW 03:44:40 10° SSE visible
19 Jul -3.6 21:59:02 10° SW 22:02:16 50° SSE 22:05:31 10° ENE visible
19 Jul -3.2 23:35:39 10° W 23:38:58 58° N 23:42:16 10° ENE visible
20 Jul -3.3 01:12:36 10° WNW 01:15:55 61° NNE 01:18:35 14° E visible
20 Jul -2.5 02:49:22 10° WNW 02:51:11 27° W 02:51:11 27° W visible
20 Jul -3.5 22:46:16 10° W 22:49:36 70° NNW 22:52:56 10° ENE visible
21 Jul -3.1 00:23:14 10° WNW 00:26:31 54° N 00:29:00 16° E visible
21 Jul -2.4 02:00:00 10° WNW 02:01:45 28° W 02:01:45 28° W visible
21 Jul -3.8 21:56:54 10° WSW 22:00:15 89° NNW 22:03:35 10° ENE visible
21 Jul -3.0 23:33:51 10° WNW 23:37:07 52° N 23:40:23 10° ENE visible
22 Jul -3.3 01:10:39 10° WNW 01:13:19 54° WNW 01:13:19 54° WNW visible
22 Jul -3.0 22:44:25 10° W 22:47:42 54° N 22:51:00 10° ENE visible
23 Jul -3.6 00:21:18 10° WNW 00:24:38 70° NNE 00:25:10 56° ENE visible
23 Jul -3.2 21:54:58 10° W 21:58:18 61° N 22:01:37 10° ENE visible
23 Jul -3.3 23:31:56 10° WNW 23:35:14 59° N 23:37:07 23° E visible
24 Jul -1.8 01:08:41 10° WNW 01:09:55 20° W 01:09:55 20° W visible
24 Jul -3.0 22:42:31 10° WNW 22:45:49 53° N 22:49:05 10° E visible
25 Jul -3.3 00:19:17 10° WNW 00:21:58 53° W 00:21:58 53° W visible
25 Jul -3.0 21:53:04 10° W 21:56:21 52° N 21:59:38 10° ENE visible
25 Jul -3.8 23:29:54 10° WNW 23:33:15 83° NNE 23:34:03 48° E visible
26 Jul -3.5 22:40:30 10° WNW 22:43:50 66° NNE 22:46:10 18° E visible
